Location: Go�ngahuizen
(53.0821°N, 5.8849°E)
Time: 13:53:55
(UTC+00:00)

ASTEX 1 - Pass Details

Date: 09 April 2020
Orbit: 720 x 743 km, 92.7° (Epoch: 26 May)

Event Time Altitude Azimuth Distance (km) Brightness Sun altitude
Exits shadow 21:50:00 74° 190° (S) 773 3.3 -24.8°
Maximum altitude 21:50:27 85° 264° (W) 748 3.3 -24.8°
Drops below altitude 10° 21:55:27 10° 353° (N) 2,250 6.8 -25.2°
Sets 21:57:45 0° 354° (N) 3,174 7.8 -25.3°
